User: anonymous   Login
Location: Capelle
(50.3413°N, 1.9974°E)
Time: 01:24:10
(UTC+00:00)
Language:

SL-16 R/B - Orbit

View from above orbital plane
View from above orbital plane
View from above satellite
View from above satellite

Ground track
Ground track

The orbit is defined by the following mean orbital elements,

1 28353U          26070.86123670 +.00000000 +00000-0 -11320-3 0 00003
2 28353  70.9996 227.9350 0004176   6.1397 353.9776 14.14597110    08
Epoch (UTC): 11 March 2026 20:40:10
Eccentricity: 0.0004176
inclination: 70.9996°
perigee height: 841 km
apogee height: 847 km
right ascension of ascending node: 227.9350°
argument of perigee: 6.1397°
revolutions per day: 14.14597110
mean anomaly at epoch: 353.9776°

The dashed part of the orbit path shows where the satellite is in the earth's shadow,  

DLR